SL-8 DEB, 39836

Orbit data source: Space-Track

SL-8 DEB, 39836 is space debris in LEO originally from a launch on Tue, 12 Feb 1991 UTC launched from the Plesetsk Missile And Space Complex (PKMTR). Debris objects in space refer to the collection of defunct objects orbiting the Earth. Examples of debris include non-operational satellites, rocket bodies, and fragments generated from explosions, collisions, or faulty payload assembly.

Loading next visibility...
Identifier
39836, 1991-009DU
Orbit
LEO
Country
Flag of CISCIS
Related business
Manufacturer
Unknown
Mission
Spacecraft
Bus & Motor
Unknown
Mass
Unknown
Launch date (UTC)
1991-02-12 (35 years ago)
Launch vehicle
Unknown
Launch site
Plesetsk Missile And Space Complex (PKMTR)
Object type
Payload
Rocket body
Debris
Shape & HBR
Unknown shape, 0.1 m
Radar Cross Section
Medium (>0.1 m² and <1 m²)

Expand to show TLE details & history
Last TLE update: 6 days ago

TLE from 6 days ago
0 SL-8 DEB
1 39836U 91009DU  26167.60180872  .00000001  00000-0  13381-3 0  9992
2 39836  73.9090 131.6491 0137185 118.7486 359.7324 12.29442896541543
Epoch: 2026-06-16T14:26Z
TLE epoch observation values (Epoch: 2026-06-16T14:26:36.273Z)
Latitude
57.72773°
Longitude
163.09095°
Altitude
1,452.19 km
Speed
7.19 km/s
True Right ascension
18h 58m 27s
True Declination
57° 35' 10"
Sunlit
Object was in daylight at epoch
Visualization orbit readout
Latitude
Unknown
Longitude
Unknown
Altitude
Unknown
Speed
Unknown
Apparent Right ascension
Unknown
Apparent Declination
Unknown
Sunlit
N/A
Visualization observer readout
Local Sidereal Time
03:47:34
Azimuth
Unknown
Elevation
Unknown
Doppler factor
Unknown
Orbital elements
Apogee altitude
1,658.299 km
Perigee altitude
1,440.788 km
Semi-major axis
7,927.68 km
Eccentricity
0.01372
Inclination
73.909°
RAAN
131.6491°
Arg. of periapsis
118.7486°
True anomaly
359.72493°
Mean anomaly
359.7324°
Eccentric anomaly
359.72868°
Mean motion
3.07485 °/min
Orbital period
117.08 mins
BSTAR
0.00013381
Loading maneuver chart data...
Computing Atmospheric mass density...
Loading historical data...
Loading historical data...
Loading historical data...
Loading historical data...
Loading historical data...
Loading historical data...
Loading historical data...

Documentation

Showing up to 5 results
|